Tracking 29799 objects as of 10-Oct-2024
HD Live streaming from Space Station
objects crossing your sky now

STARLINK-30247

Track STARLINK-30247 now!
10-day predictions
STARLINK-30247 is classified as:


NORAD ID: 57644
Int'l Code: 2023-122N
Perigee: 565.4 km
Apogee: 567.2 km
Inclination: 43.0 °
Period: 95.8 minutes
Semi major axis: 6937 km
RCS: Unknown
Launch date: August 17, 2023
Source: United States (US)
Launch site: AIR FORCE EASTERN TEST RANGE (AFETR)
Your satellite tracking list
Your tracking list is empty




NASA's NSSDC Master Catalog

Two Line Element Set (TLE):
1 57644U 23122N   24283.95746401 -.00002365  00000-0 -16016-3 0  9996
2 57644  43.0035  16.8700 0001288 261.2178  98.8519 15.02517595 64584
Source of the keplerian elements: AFSPC